Location: Twentynine Palms Airport
(34.1316°N, 115.9458°W)
Time: 20:41:50
(UTC-07:00)

Amateur Radio Satellites - All Passes

Search period start: 25 June 2017 20:11
Search period end: 26 June 2017 20:11
Location: Twentynine Palms Airport, 34.1316°N, 115.9458°W

Satellite Date Start Highest point End Downlink Frequencies (MHz)
Time Altitude Azimuth
YUBILEINY 25 Jun 20:23:47 20:28:11 15° 79° (ENE) 20:32:34 435.215
Oscar 11 25 Jun 20:29:55 20:34:06 49° 75° (ENE) 20:38:18 .
AAUSAT CUBESAT 2 25 Jun 20:29:57 20:33:59 53° 260° (W) 20:38:01 437.432
PCSat 25 Jun 20:36:37 20:40:51 23° 54° (NE) 20:45:03 145.827
ZACube-1 25 Jun 20:37:40 20:42:12 88° 264° (W) 20:46:49 437.345
UWE-3 25 Jun 20:43:35 20:47:51 40° 262° (W) 20:52:14 435.000/436.395/437.385
BEESAT 2 25 Jun 20:46:08 20:49:27 26° 112° (ESE) 20:52:50 435.950
HO-68 25 Jun 20:50:04 20:55:11 21° 266° (W) 21:00:21 435.675
O/OREOS (USA 219) 25 Jun 20:53:13 20:57:17 33° 104° (ESE) 21:01:22 437.305
EO-88 25 Jun 21:15:42 21:18:39 23° 72° (ENE) 21:21:36 145.990 - 145.960
NO-84 25 Jun 21:17:19 21:21:04 84° 132° (SE) 21:25:10 435.350 FM
STRAND 1 25 Jun 21:20:59 21:24:41 20° 293° (WNW) 21:28:21 437.568
BEESAT 3 25 Jun 21:23:50 21:27:24 32° 304° (NW) 21:31:02 437.485
AO-85 25 Jun 21:35:07 21:37:34 15° 309° (NW) 21:39:58 145.980
UNISAT 6 25 Jun 21:36:54 21:39:22 14° 92° (E) 21:41:48 437.425
AO-73 25 Jun 21:40:06 21:43:21 19° 266° (W) 21:46:38 145.935
DELFI C3 25 Jun 21:54:09 21:58:02 62° 259° (W) 22:01:55 145.870
M-CUBED/EXP-1 PRIME 25 Jun 21:56:43 22:00:16 35° 104° (ESE) 22:04:02 437.505
FO-29 25 Jun 22:03:00 22:10:39 52° 99° (E) 22:18:03 435.910
Oscar 11 25 Jun 22:09:07 22:10:27 11° 268° (W) 22:11:47 .
YUBILEINY 25 Jun 22:14:52 22:23:39 88° 271° (W) 22:32:33 435.215
PRISM 25 Jun 22:16:16 22:20:08 38° 99° (E) 22:23:59 437.425
PCSat 25 Jun 22:19:16 22:24:24 44° 250° (WSW) 22:29:29 145.827
RS-15 25 Jun 22:22:28 22:33:57 46° 309° (NW) 22:45:43 29.354- 29.394
BEESAT 2 25 Jun 22:24:03 22:27:09 21° 307° (NW) 22:30:18 435.950
TIGRISAT 25 Jun 22:29:30 22:34:03 54° 100° (E) 22:38:28 435.000
O/OREOS (USA 219) 25 Jun 22:33:28 22:36:43 19° 298° (WNW) 22:40:00 437.305
EO-88 25 Jun 22:49:51 22:52:15 17° 265° (W) 22:54:40 145.990 - 145.960
ESTCUBE 1 25 Jun 22:51:55 22:55:50 30° 72° (ENE) 22:59:46 437.505/2401.250
SO-50 25 Jun 22:52:19 22:56:22 31° 55° (NE) 23:00:24 436.795
NO-84 25 Jun 22:56:57 22:59:11 14° 329° (NNW) 23:01:31 435.350 FM
LO-87 25 Jun 23:09:57 23:13:30 87° 258° (WSW) 23:17:05 145.935 - 145.965
UNISAT 6 25 Jun 23:11:51 23:16:16 44° 287° (WNW) 23:20:34 437.425
SPROUT 25 Jun 23:12:56 23:14:21 11° 66° (ENE) 23:15:46 437.525
M-CUBED/EXP-1 PRIME 25 Jun 23:32:18 23:34:27 15° 295° (WNW) 23:36:40 437.505
FO-29 25 Jun 23:48:35 23:55:11 31° 294° (WNW) 00:01:41 435.910
PRISM 25 Jun 23:52:57 23:55:02 14° 293° (WNW) 23:57:08 437.425
POLYITAN 1 25 Jun 23:55:44 23:59:25 28° 97° (E) 00:03:03 437.675
QB50P2 26 Jun 00:06:16 00:10:21 41° 99° (E) 00:14:21 145.880/145.840
TIGRISAT 26 Jun 00:08:10 00:10:11 13° 295° (WNW) 00:12:10 435.000
AIST 2D 26 Jun 00:10:50 00:14:18 65° 283° (WNW) 00:17:44 435.315
YUBILEINY 26 Jun 00:17:00 00:21:38 15° 294° (WNW) 00:26:19 435.215
BUGSAT 1 26 Jun 00:19:48 00:20:47 11° 92° (E) 00:21:46 437.445
50 SAT 26 Jun 00:27:24 00:30:24 31° 73° (ENE) 00:33:25 437.505
VELOX 1 26 Jun 00:27:37 00:31:59 86° 77° (ENE) 00:36:24 145.980
ESTCUBE 1 26 Jun 00:29:20 00:32:37 20° 265° (W) 00:35:56 437.505/2401.250
EO-79 26 Jun 00:30:28 00:34:46 77° 103° (ESE) 00:39:00 145.935-145.965
SO-50 26 Jun 00:33:04 00:36:37 23° 249° (WSW) 00:40:12 436.795
DUCHIFAT 1 26 Jun 00:43:57 00:48:13 89° 102° (ESE) 00:52:27 145.980
RS-15 26 Jun 00:44:11 00:50:55 16° 340° (NNW) 00:57:40 29.354- 29.394
SPROUT 26 Jun 00:45:37 00:49:45 51° 260° (W) 00:53:56 437.525
DX 1 26 Jun 00:46:06 00:50:09 41° 73° (ENE) 00:54:13 434.975-435.025
NANOSAT C BR1 26 Jun 00:52:47 00:56:59 62° 285° (WNW) 01:01:10 145.865
UKube-1 26 Jun 01:02:18 01:06:20 42° 73° (ENE) 01:10:23 .
POLYITAN 1 26 Jun 01:31:52 01:34:58 20° 291° (WNW) 01:38:05 437.675
Gurwin Techsat 1B 26 Jun 01:35:21 01:39:07 19° 94° (E) 01:42:51 435.225
QB50P2 26 Jun 01:43:32 01:45:43 14° 293° (WNW) 01:47:54 145.880/145.840
BUGSAT 1 26 Jun 01:52:15 01:56:22 49° 286° (WNW) 02:00:26 437.445
MOZHAYETS 4 26 Jun 02:09:04 02:10:49 12° 65° (ENE) 02:12:35
Oscar 19 26 Jun 02:16:18 02:21:27 86° 102° (ESE) 02:26:35 437.125/150
DX 1 26 Jun 02:24:21 02:26:29 13° 266° (W) 02:28:37 434.975-435.025
ITUPSAT 1 26 Jun 02:30:19 02:34:39 35° 71° (ENE) 02:39:01 437.325
BEESAT 26 Jun 02:39:43 02:44:15 45° 73° (ENE) 02:48:50 436.000
UKube-1 26 Jun 02:40:29 02:42:30 13° 266° (W) 02:44:33 .
ITAMSAT 1 26 Jun 02:57:10 02:59:35 13° 93° (E) 03:02:00 435.822/435.867
RS-15 26 Jun 03:04:47 03:11:14 15° 19° (NNE) 03:17:32 29.354- 29.394
Gurwin Techsat 1B 26 Jun 03:14:10 03:19:11 43° 288° (WNW) 03:24:10 435.225
AO-7 26 Jun 03:17:32 03:24:34 29° 97° (E) 03:31:32 .
KKS-1 26 Jun 03:38:28 03:40:28 13° 66° (ENE) 03:42:29 437.445
MOZHAYETS 4 26 Jun 03:42:52 03:47:25 58° 260° (W) 03:52:00
NO-84 26 Jun 03:54:59 03:57:44 16° 32° (NNE) 04:00:26 435.350 FM
STARS 26 Jun 04:07:37 04:08:37 11° 65° (ENE) 04:09:36 437.465
ITUPSAT 1 26 Jun 04:09:01 04:12:30 20° 265° (W) 04:16:01 437.325
BEESAT 26 Jun 04:19:27 04:22:12 15° 266° (W) 04:24:57 436.000
CUBESAT XI-V 26 Jun 04:25:18 04:29:55 68° 76° (ENE) 04:34:31 437.345
AO-85 26 Jun 04:28:33 04:30:35 13° 50° (NE) 04:32:41 145.980
ITAMSAT 1 26 Jun 04:34:12 04:39:22 60° 286° (WNW) 04:44:29 435.822/435.867
AO-7 26 Jun 05:09:27 05:17:31 54° 293° (WNW) 05:25:34 .
KKS-1 26 Jun 05:12:17 05:16:33 48° 260° (W) 05:20:51 437.445
RS-15 26 Jun 05:16:50 05:28:17 44° 50° (NE) 05:39:07 29.354- 29.394
NO-84 26 Jun 05:31:27 05:35:50 82° 228° (SW) 05:40:00 435.350 FM
DOVE 4 26 Jun 05:35:36 05:39:53 28° 97° (E) 05:44:19 437.250
STARS 26 Jun 05:40:05 05:44:23 58° 259° (W) 05:48:44 437.465
BEESAT 3 26 Jun 05:43:36 05:47:24 40° 57° (ENE) 05:51:07 437.485
CUTE-I 26 Jun 05:44:41 05:46:46 12° 92° (E) 05:48:51 437.470
AO-85 26 Jun 06:07:05 06:11:12 55° 244° (WSW) 06:15:36 145.980
NUDT-PHONESAT 26 Jun 06:10:29 06:12:52 16° 95° (E) 06:15:12 437.300
XW-2F 26 Jun 06:27:15 06:30:44 36° 98° (E) 06:34:09 145.980 - 146.000
XW-2D 26 Jun 06:31:37 06:35:15 46° 99° (E) 06:38:50 145.860 - 145.880
HO-68 26 Jun 06:35:09 06:38:00 13° 91° (E) 06:40:50 435.675
XW-2B 26 Jun 06:40:34 06:44:17 59° 100° (E) 06:47:58 145.730 - 145.750
LilacSat-2 26 Jun 06:40:39 06:44:25 65° 100° (E) 06:48:08 437.200
BEESAT 2 26 Jun 06:43:56 06:47:59 67° 60° (ENE) 06:51:57 435.950
STRAND 1 26 Jun 06:53:08 06:57:53 40° 71° (ENE) 07:02:40 437.568
XW-2C 26 Jun 06:56:03 06:59:49 80° 284° (WNW) 07:03:33 145.795 - 145.815
O/OREOS (USA 219) 26 Jun 07:06:42 07:10:47 34° 65° (ENE) 07:14:51 437.305
KAITUO 1B 26 Jun 07:08:28 07:12:09 72° 283° (WNW) 07:15:48 145.475/437.950
DOVE 4 26 Jun 07:13:12 07:17:25 28° 289° (WNW) 07:21:48 437.250
CUTE-I 26 Jun 07:21:51 07:27:12 67° 286° (WNW) 07:32:31 437.470
BEESAT 3 26 Jun 07:22:46 07:24:33 13° 252° (WSW) 07:26:19 437.485
SEEDS 26 Jun 07:27:52 07:30:38 17° 94° (E) 07:33:23 437.485
Tancredo 1 26 Jun 07:29:29 07:32:28 71° 318° (NW) 07:35:30 437.200
RS-15 26 Jun 07:29:31 07:40:52 52° 251° (WSW) 07:51:40 29.354- 29.394
NUDT-PHONESAT 26 Jun 07:43:42 07:46:42 24° 288° (WNW) 07:49:40 437.300
CUTE 1.7 + AOD 2 26 Jun 07:45:41 07:49:45 48° 99° (E) 07:53:48 437.475
ISS 26 Jun 07:57:18 08:00:33 85° 317° (NW) 08:03:51 437.550
XW-2F 26 Jun 08:03:08 08:04:28 12° 292° (WNW) 08:05:48 145.980 - 146.000
CUBEBUG 2 26 Jun 08:04:46 08:09:11 40° 98° (E) 08:13:28 437.445
FO-29 26 Jun 08:14:39 08:17:27 13° 58° (ENE) 08:20:22 435.910
AAUSAT CUBESAT 2 26 Jun 08:15:50 08:19:24 29° 97° (E) 08:23:00 437.432
HO-68 26 Jun 08:19:14 08:26:27 89° 290° (WNW) 08:33:37 435.675
XW-2A 26 Jun 08:21:00 08:24:23 71° 283° (WNW) 08:27:44 145.665 - 145.685
Oscar 11 26 Jun 08:22:51 08:24:29 12° 92° (E) 08:26:07 .
YUBILEINY 26 Jun 08:30:15 08:38:21 39° 76° (ENE) 08:46:21 435.215
ZACube-1 26 Jun 08:30:32 08:34:05 23° 95° (E) 08:37:33 437.345
STRAND 1 26 Jun 08:33:29 08:37:08 20° 265° (W) 08:40:51 437.568
UWE-3 26 Jun 08:36:45 08:41:13 54° 99° (E) 08:45:32 435.000/436.395/437.385
M-CUBED/EXP-1 PRIME 26 Jun 08:40:32 08:42:58 19° 67° (ENE) 08:45:21 437.505
O/OREOS (USA 219) 26 Jun 08:46:59 08:49:51 17° 260° (W) 08:52:43 437.305
SEEDS 26 Jun 09:02:42 09:06:18 29° 288° (WNW) 09:09:55 437.485
PRISM 26 Jun 09:02:51 09:05:29 17° 68° (ENE) 09:08:07 437.425
CUTE 1.7 + AOD 2 26 Jun 09:23:44 09:25:06 11° 293° (WNW) 09:26:29 437.475
TIGRISAT 26 Jun 09:24:19 09:28:18 30° 71° (ENE) 09:32:21 435.000
AO-73 26 Jun 09:30:26 09:34:49 72° 285° (WNW) 09:39:05 145.935
DELFI C3 26 Jun 09:35:21 09:38:19 20° 96° (E) 09:41:16 145.870
ISS 26 Jun 09:36:24 09:37:29 11° 333° (NNW) 09:38:35 437.550
CUBEBUG 2 26 Jun 09:42:27 09:45:23 17° 293° (WNW) 09:48:17 437.445
AAUSAT CUBESAT 2 26 Jun 09:51:51 09:54:37 18° 290° (WNW) 09:57:23 437.432
FO-29 26 Jun 09:55:23 10:01:18 87° 257° (WSW) 10:08:05 435.910
Oscar 11 26 Jun 09:56:42 10:00:49 45° 286° (WNW) 10:04:53 .
UNISAT 6 26 Jun 10:06:00 10:10:34 82° 257° (WSW) 10:15:15 437.425
ZACube-1 26 Jun 10:06:40 10:10:15 24° 290° (WNW) 10:13:45 437.345
HO-68 26 Jun 10:09:31 10:13:09 15° 302° (WNW) 10:16:46 435.675
M-CUBED/EXP-1 PRIME 26 Jun 10:15:15 10:17:20 16° 259° (W) 10:19:24 437.505
UWE-3 26 Jun 10:15:21 10:17:06 12° 295° (WNW) 10:18:49 435.000/436.395/437.385
EO-88 26 Jun 10:20:47 10:24:20 50° 100° (E) 10:27:52 145.990 - 145.960
YUBILEINY 26 Jun 10:27:03 10:35:01 40° 273° (W) 10:42:56 435.215
PRISM 26 Jun 10:36:57 10:40:30 29° 262° (W) 10:44:04 437.425
AIST 2D 26 Jun 10:41:47 10:44:36 22° 72° (ENE) 10:47:25 435.315
POLYITAN 1 26 Jun 10:45:55 10:48:05 14° 67° (ENE) 10:50:15 437.675
QB50P2 26 Jun 10:55:46 10:58:51 20° 69° (ENE) 11:01:57 145.880/145.840
TIGRISAT 26 Jun 11:01:27 11:04:57 21° 265° (W) 11:08:31 435.000
DELFI C3 26 Jun 11:09:52 11:12:58 23° 289° (WNW) 11:16:05 145.870
PCSat 26 Jun 11:13:50 11:18:52 41° 110° (ESE) 11:23:55 145.827
EO-79 26 Jun 11:19:05 11:22:54 33° 72° (ENE) 11:26:45 145.935-145.965
DUCHIFAT 1 26 Jun 11:31:49 11:35:42 37° 73° (ENE) 11:39:39 145.980
NANOSAT C BR1 26 Jun 11:40:37 11:44:44 55° 75° (ENE) 11:48:55 145.865
LO-87 26 Jun 12:13:49 12:17:14 39° 286° (WNW) 12:20:38 145.935 - 145.965
AIST 2D 26 Jun 12:15:29 12:17:44 16° 265° (W) 12:19:59 435.315
POLYITAN 1 26 Jun 12:19:24 12:23:26 42° 261° (W) 12:27:31 437.675
VELOX 1 26 Jun 12:21:56 12:25:20 21° 96° (E) 12:28:44 145.980
ESTCUBE 1 26 Jun 12:23:57 12:28:24 72° 284° (WNW) 12:32:52 437.505/2401.250
QB50P2 26 Jun 12:30:46 12:34:25 28° 263° (W) 12:38:06 145.880/145.840
SPROUT 26 Jun 12:34:58 12:38:54 33° 98° (E) 12:42:47 437.525
BUGSAT 1 26 Jun 12:37:36 12:41:40 65° 76° (ENE) 12:45:49 437.445
JUGNU 26 Jun 12:40:38 12:44:14 16° 170° (S) 12:47:52 437.505
Gurwin Techsat 1B 26 Jun 12:52:53 12:56:53 22° 67° (ENE) 13:00:55 435.225
EO-79 26 Jun 12:56:04 12:58:42 16° 266° (W) 13:01:22 145.935-145.965
PCSat 26 Jun 12:58:01 13:02:21 24° 306° (NW) 13:06:43 145.827
SO-50 26 Jun 13:03:26 13:07:02 23° 111° (ESE) 13:10:37 436.795
DUCHIFAT 1 26 Jun 13:09:13 13:11:28 14° 266° (W) 13:13:45 145.980
50 SAT 26 Jun 13:25:28 13:28:50 56° 101° (E) 13:32:11 437.505
Oscar 19 26 Jun 13:29:15 13:34:25 85° 75° (ENE) 13:39:34 437.125/150
Tancredo 1 26 Jun 13:57:04 13:59:23 19° 34° (NE) 14:01:40 437.200
VELOX 1 26 Jun 13:57:57 14:01:43 28° 289° (WNW) 14:05:29 145.980
ITAMSAT 1 26 Jun 14:11:37 14:14:31 15° 64° (ENE) 14:17:25 435.822/435.867
SPROUT 26 Jun 14:11:42 14:14:29 17° 292° (WNW) 14:17:16 437.525
AO-7 26 Jun 14:12:50 14:19:44 30° 61° (ENE) 14:26:40 .
DX 1 26 Jun 14:13:32 14:17:51 59° 285° (WNW) 14:22:08 434.975-435.025
JUGNU 26 Jun 14:28:19 14:32:35 20° 180° (S) 14:36:50 437.505
UKube-1 26 Jun 14:28:26 14:32:42 60° 285° (WNW) 14:36:57 .
ISS 26 Jun 14:28:33 14:31:08 21° 34° (NE) 14:33:43 437.550
SRMSAT 26 Jun 14:28:47 14:31:08 12° 165° (SSE) 14:33:29 437.500
Gurwin Techsat 1B 26 Jun 14:31:38 14:36:32 38° 261° (W) 14:41:29 435.225
ITUPSAT 1 26 Jun 14:36:37 14:38:16 12° 92° (E) 14:39:54 437.325
SO-50 26 Jun 14:43:15 14:47:18 31° 305° (NW) 14:51:20 436.795
BEESAT 26 Jun 14:44:50 14:47:37 15° 94° (E) 14:50:23 436.000
Tancredo 1 26 Jun 15:32:16 15:34:58 29° 229° (SW) 15:37:39 437.200
MOZHAYETS 4 26 Jun 15:41:37 15:45:58 42° 99° (E) 15:50:16
ITAMSAT 1 26 Jun 15:48:21 15:53:26 57° 259° (WSW) 15:58:35 435.822/435.867
AO-7 26 Jun 16:03:57 16:12:01 55° 257° (WSW) 16:20:11 .
ISS 26 Jun 16:04:40 16:07:40 32° 229° (SW) 16:10:38 437.550
ITUPSAT 1 26 Jun 16:11:41 16:16:23 58° 286° (WNW) 16:21:03 437.325
SRMSAT 26 Jun 16:15:31 16:19:36 19° 175° (S) 16:23:41 437.500
JUGNU 26 Jun 16:17:22 16:20:55 16° 190° (S) 16:24:28 437.505
BEESAT 26 Jun 16:21:01 16:25:33 44° 288° (WNW) 16:30:03 436.000
CUBESAT XI-V 26 Jun 16:26:13 16:29:47 22° 95° (E) 16:33:20 437.345
DOVE 4 26 Jun 16:39:12 16:41:33 15° 67° (ENE) 16:43:57 437.250
CUTE-I 26 Jun 17:02:41 17:05:40 15° 64° (ENE) 17:08:39 437.470
XW-2F 26 Jun 17:06:38 17:07:46 11° 68° (ENE) 17:08:54 145.980 - 146.000
KKS-1 26 Jun 17:06:44 17:10:58 40° 99° (E) 17:15:10 437.445
XW-2D 26 Jun 17:10:33 17:12:34 14° 69° (ENE) 17:14:35 145.860 - 145.880
XW-2B 26 Jun 17:19:00 17:21:32 17° 70° (ENE) 17:24:05 145.730 - 145.750
LilacSat-2 26 Jun 17:19:31 17:22:16 19° 71° (ENE) 17:25:01 437.200
MOZHAYETS 4 26 Jun 17:20:03 17:22:43 16° 293° (WNW) 17:25:23
STARS 26 Jun 17:33:12 17:37:10 32° 98° (E) 17:41:08 437.465
XW-2C 26 Jun 17:33:44 17:37:00 27° 72° (ENE) 17:40:15 145.795 - 145.815
KAITUO 1B 26 Jun 17:44:48 17:48:03 27° 73° (ENE) 17:51:18 145.475/437.950
CUBESAT XI-V 26 Jun 18:03:10 18:07:06 29° 289° (WNW) 18:11:01 437.345
SRMSAT 26 Jun 18:04:01 18:08:06 19° 185° (S) 18:12:10 437.500
DOVE 4 26 Jun 18:15:07 18:18:55 35° 262° (W) 18:22:48 437.250
NUDT-PHONESAT 26 Jun 18:18:06 18:21:50 80° 81° (E) 18:25:37 437.300
CUTE 1.7 + AOD 2 26 Jun 18:35:05 18:38:21 22° 70° (ENE) 18:41:36 437.475
XW-2F 26 Jun 18:37:52 18:41:28 40° 261° (W) 18:45:06 145.980 - 146.000
CUTE-I 26 Jun 18:39:55 18:45:09 59° 259° (W) 18:50:25 437.470
XW-2D 26 Jun 18:42:58 18:46:25 32° 262° (W) 18:49:53 145.860 - 145.880
HO-68 26 Jun 18:43:31 18:50:18 47° 69° (ENE) 18:57:06 435.675
KKS-1 26 Jun 18:44:27 18:47:08 16° 293° (WNW) 18:49:49 437.445
XW-2A 26 Jun 18:49:11 18:51:38 19° 71° (ENE) 18:54:06 145.665 - 145.685
XW-2B 26 Jun 18:52:16 18:55:30 25° 264° (W) 18:58:44 145.730 - 145.750
LilacSat-2 26 Jun 18:53:13 18:56:21 23° 264° (W) 18:59:30 437.200
CUBEBUG 2 26 Jun 18:59:18 19:02:50 22° 69° (ENE) 19:06:26 437.445
AAUSAT CUBESAT 2 26 Jun 19:03:59 19:05:41 12° 67° (ENE) 19:07:23 437.432
STRAND 1 26 Jun 19:08:15 19:11:47 18° 94° (E) 19:15:17 437.568
XW-2C 26 Jun 19:08:43 19:11:09 16° 266° (W) 19:13:36 145.795 - 145.815
STARS 26 Jun 19:10:07 19:13:15 19° 292° (WNW) 19:16:22 437.465
KAITUO 1B 26 Jun 19:19:49 19:22:02 15° 266° (W) 19:24:16 145.475/437.950
ZACube-1 26 Jun 19:23:45 19:25:53 13° 66° (ENE) 19:28:02 437.345
UWE-3 26 Jun 19:29:47 19:33:42 28° 71° (ENE) 19:37:40 435.000/436.395/437.385
BEESAT 3 26 Jun 19:30:46 19:33:19 17° 109° (ESE) 19:35:52 437.485
RS-15 26 Jun 19:35:01 19:45:39 39° 105° (ESE) 19:56:30 29.354- 29.394
SEEDS 26 Jun 19:49:37 19:53:49 74° 259° (W) 19:58:00 437.485
SRMSAT 26 Jun 19:54:19 19:56:33 12° 195° (SSW) 19:58:47 437.500
